Weather History for Durango, Mexico

Change the Weather History Date:

Wednesday, October 3, 2012

  Actual Average Record
Temperature  
Mean Temperature 61 °F -  
Max Temperature 83 °F 77 °F 86 °F (2000)
Min Temperature 39 °F 46 °F 39 °F (2012)
Degree Days  
Heating Degree Days 4    
Growing Degree Days 11 (Base 50)    
Moisture  
Dew Point 34 °F    
Average Humidity 40    
Maximum Humidity 87    
Minimum Humidity 12    
Precipitation  
Precipitation 0.00 in - - ()
Sea Level Pressure  
Sea Level Pressure 30.15 in    
Wind  
Wind Speed 1 mph ()    
Max Wind Speed 8 mph    
Max Gust Speed -    
Visibility 11.9 miles    
Events      
Averages and records for this station are not official NWS values.
T = Trace of Precipitation, MM = Missing Value Source: Averaged Metar Reports

Daily Weather History Graph

Daily Weather History Graph

Search for Another Location

Airport:

Trip Planner

Search our weather history database for the weather conditions in past years. The results will help you decide how hot, cold, wet, or windy it might be!

Date:

Astronomy

Oct. 03, 2012 Rise Set
Actual Time 7:50 AM CDT 7:42 PM CDT
Civil Twilight 7:28 AM CDT 8:05 PM CDT
Nautical Twilight 7:01 AM CDT 8:31 PM CDT
Astronomical Twilight 6:35 AM CDT 8:57 PM CDT
Moon 10:03 PM CDT (10/3) 10:50 AM CDT (10/3)
Length of Visible Light 12h 36m
Length of Day
11h 51m
Waning Gibbous, 88% of the Moon is Illuminated
Oct 3
Waning Gibbous
Oct 8
Last Quarter
Oct 15
New
Oct 21
First Quarter
Oct 29
Full

Hourly Weather History & Observations

Time (CDT) Temp. Windchill Dew Point Humidity Pressure Visibility Wind Dir Wind Speed Gust Speed Precip Events Conditions
12:50 AM 56 °F - 40 °F 43% 29.86 in 6 mi Calm Calm - -  
3:50 AM 50 °F - 40 °F 60% 29.94 in 6 mi Calm Calm - -  
5:49 AM 41.0 °F - 35.6 °F 81% 30.29 in 10.0 mi Calm Calm - N/A   Clear
6:44 AM 41.0 °F 39.0 °F 37.4 °F 87% 30.04 in 10.0 mi SSE 3.5 mph - N/A   Clear
6:55 AM 47 °F - 40 °F 69% 30.05 in 6 mi Calm Calm - -  
7:42 AM 39.2 °F - 35.6 °F 87% 30.32 in 14.0 mi Calm Calm - N/A   Clear
8:48 AM 46.4 °F - 39.2 °F 76% 30.34 in 14.0 mi Calm Calm - N/A   Clear
9:45 AM 55.4 °F - 39.2 °F 54% 30.08 in 12.0 mi Calm Calm - N/A   Clear
9:50 AM 54 °F - 41 °F 50% 30.13 in 19 mi WNW 2.2 mph - -  
10:44 AM 62.6 °F - 37.4 °F 39% 30.36 in 12.0 mi SSE 3.5 mph - N/A   Clear
11:49 AM 68.0 °F - 35.6 °F 30% 30.35 in 12.0 mi East 2.3 mph - N/A   Clear
12:47 PM 69.8 °F - 33.8 °F 27% 30.03 in 14.0 mi SSE 2.3 mph - N/A   Clear
12:55 PM 74 °F - 38 °F 17% 30.12 in 25 mi East 2.2 mph - -  
1:41 PM 73.4 °F - 26.6 °F 18% 30.31 in 14.0 mi ENE 8.1 mph - N/A   Clear
2:45 PM 75.2 °F - 26.6 °F 17% 30.28 in 14.0 mi NE 5.8 mph - N/A   Clear
3:44 PM 75.2 °F - 24.8 °F 15% 29.98 in 14.0 mi Calm Calm - N/A   Clear
4:47 PM 77.0 °F - 23.0 °F 13% 30.25 in 14.0 mi West 6.9 mph - N/A   Clear
5:44 PM 77.0 °F - 19.4 °F 12% 30.25 in 14.0 mi Calm Calm - N/A   Clear
6:41 PM 77.0 °F - 23.0 °F 13% 29.96 in 14.0 mi Calm Calm - N/A   Clear
6:48 PM 80 °F - 44 °F 18% 29.90 in 25 mi East 2.2 mph - -  
7:43 PM 71.6 °F - 30.2 °F 22% 30.27 in 14.0 mi Calm Calm - N/A   Clear
8:42 PM 64.4 °F - 32.0 °F 30% 30.28 in 8.0 mi WNW 5.8 mph - N/A   Clear
9:45 PM 57.2 °F - 33.8 °F 41% 30.06 in 8.0 mi East 5.8 mph - N/A   Clear